Alexander City, AL

7:13 AM CST on December 14, 2019 (GMT -0600)
Russell

Weather History for KALX - October, 2019

Change the Weather History Date:

Saturday, October 26, 2019

  Actual Average (KAUO) Record (KAUO)
Temperature  
Mean Temperature 70 °F -  
Max Temperature 76 °F - 88 °F (2010)
Min Temperature 62 °F - 28 °F (1968)
Degree Days  
Heating Degree Days 0    
Month to date heating degree days  
Since 1 July heating degree days  
Cooling Degree Days 4    
Month to date cooling degree days  
Year to date cooling degree days  
Growing Degree Days 20 (Base 50)    
Moisture  
Dew Point 69 °F    
Average Humidity 90    
Maximum Humidity 97    
Minimum Humidity 78    
Precipitation  
Precipitation 0.58 in - 2.66 in (1997)
Month to date precipitation  
Year to date precipitation  
Sea Level Pressure  
Sea Level Pressure 29.85 in    
Wind  
Wind Speed 9 mph (SSE)    
Max Wind Speed 17 mph    
Max Gust Speed 25 mph    
Visibility 8 miles    
Events Rain    
T = Trace of Precipitation, MM = Missing Value Source: NWS Daily Summary

Daily Weather History Graph

Daily Weather History Graph

Search for Another Location

Airport or City:

Astronomy

Oct. 26, 2019 Rise Set
Actual Time 6:56 AM CDT 5:58 PM CDT
Civil Twilight 6:31 AM CDT 6:23 PM CDT
Nautical Twilight 6:02 AM CDT 6:52 PM CDT
Astronomical Twilight 5:33 AM CDT 7:21 PM CDT
Moon 5:01 AM CDT (10/26) 5:25 PM CDT (10/26)
Length of Visible Light 11h 52m
Length of Day
11h 02m
Waning Crescent, 3% of the Moon is Illuminated
Oct 26
Waning Crescent
Oct 27
New
Nov 4
First Quarter
Nov 12
Full
Nov 19
Last Quarter

Hourly Weather History & Observations

Time (CDT) Temp. Dew Point Humidity Pressure Visibility Wind Dir Wind Speed Gust Speed Precip Events Conditions
12:15 AM 72.1 °F 69.4 °F 91% 29.98 in 10.0 mi ESE 8.1 mph 16.1 mph N/A   Overcast
12:35 AM 72.5 °F 69.3 °F 90% 29.97 in 10.0 mi ESE 8.1 mph - N/A   Overcast
12:55 AM 72.5 °F 68.9 °F 88% 29.97 in 10.0 mi SE 11.5 mph 18.4 mph N/A   Overcast
1:15 AM 72.7 °F 68.9 °F 88% 29.97 in 10.0 mi ESE 10.4 mph 18.4 mph N/A   Overcast
1:55 AM 72.7 °F 68.2 °F 86% 29.96 in 10.0 mi SE 11.5 mph 21.9 mph N/A   Overcast
2:15 AM 72.5 °F 68.2 °F 86% 29.96 in 10.0 mi SE 11.5 mph - N/A   Overcast
2:35 AM 72.5 °F 68.4 °F 87% 29.95 in 10.0 mi SE 8.1 mph 17.3 mph N/A   Overcast
2:55 AM 72.5 °F 68.4 °F 87% 29.94 in 10.0 mi SE 10.4 mph 17.3 mph N/A   Overcast
3:15 AM 72.5 °F 68.4 °F 87% 29.93 in 10.0 mi SE 9.2 mph - N/A   Overcast
3:35 AM 72.5 °F 68.0 °F 86% 29.93 in 10.0 mi SE 12.7 mph 20.7 mph N/A   Overcast
3:55 AM 72.3 °F 68.0 °F 86% 29.92 in 10.0 mi SE 8.1 mph 18.4 mph N/A   Overcast
4:15 AM 72.1 °F 68.0 °F 87% 29.91 in 10.0 mi SE 6.9 mph 21.9 mph N/A   Overcast
4:35 AM 72.5 °F 68.0 °F 86% 29.92 in 10.0 mi SE 5.8 mph - N/A   Overcast
4:55 AM 72.5 °F 68.0 °F 86% 29.92 in 10.0 mi SE 6.9 mph 16.1 mph N/A   Overcast
5:15 AM 72.5 °F 68.0 °F 86% 29.91 in 10.0 mi SE 6.9 mph 17.3 mph N/A   Overcast
5:55 AM 72.0 °F 68.5 °F 89% 29.91 in 7.0 mi SE 10.4 mph 16.1 mph N/A   Overcast
6:15 AM 71.8 °F 68.5 °F 89% 29.90 in 7.0 mi SE 9.2 mph - N/A   Overcast
6:35 AM 71.4 °F 68.7 °F 91% 29.89 in 10.0 mi SE 8.1 mph - N/A   Overcast
6:55 AM 71.6 °F 68.2 °F 89% 29.88 in 10.0 mi SE 9.2 mph 19.6 mph N/A   Overcast
7:15 AM 71.8 °F 68.0 °F 88% 29.88 in 10.0 mi SE 15.0 mph 18.4 mph 0.01 in   Overcast
7:35 AM 71.8 °F 68.0 °F 88% 29.89 in 10.0 mi SE 12.7 mph 16.1 mph 0.01 in   Overcast
7:55 AM 71.2 °F 68.2 °F 90% 29.90 in 5.0 mi SE 12.7 mph 21.9 mph 0.01 in   Overcast
8:15 AM 71.1 °F 68.4 °F 91% 29.90 in 5.0 mi SE 9.2 mph 17.3 mph N/A   Overcast
8:35 AM 70.7 °F 68.7 °F 93% 29.91 in 2.5 mi SE 9.2 mph 18.4 mph N/A   Overcast
8:55 AM 70.3 °F 68.9 °F 95% 29.91 in 3.0 mi SE 4.6 mph 16.1 mph N/A Rain Light Rain
9:15 AM 70.2 °F 68.9 °F 96% 29.91 in 2.5 mi SE 9.2 mph - N/A   Overcast
9:35 AM 70.3 °F 68.9 °F 95% 29.92 in 3.0 mi SE 6.9 mph - N/A   Overcast
9:55 AM 70.2 °F 68.9 °F 96% 29.89 in 5.0 mi SE 11.5 mph 16.1 mph N/A   Overcast
10:15 AM 70.9 °F 68.9 °F 93% 29.88 in 10.0 mi SE 6.9 mph 16.1 mph N/A   Overcast
10:35 AM 71.6 °F 68.5 °F 90% 29.88 in 10.0 mi SE 8.1 mph - N/A   Overcast
10:55 AM 72.5 °F 68.5 °F 87% 29.88 in 10.0 mi SSE 6.9 mph 17.3 mph N/A   Overcast
11:15 AM 72.7 °F 68.4 °F 86% 29.86 in 10.0 mi SE 8.1 mph 18.4 mph N/A   Overcast
11:35 AM 73.4 °F 68.5 °F 85% 29.86 in 10.0 mi SE 10.4 mph 19.6 mph N/A   Overcast
11:55 AM 76.1 °F 68.9 °F 78% 29.85 in 10.0 mi SSE 15.0 mph 20.7 mph N/A   Mostly Cloudy
12:15 PM 75.2 °F 68.7 °F 80% 29.84 in 10.0 mi SE 17.3 mph 25.3 mph N/A   Mostly Cloudy
12:35 PM 75.2 °F 68.9 °F 81% 29.83 in 10.0 mi SE 10.4 mph 18.4 mph N/A   Overcast
12:55 PM 75.9 °F 68.9 °F 79% 29.81 in 10.0 mi SE 9.2 mph 19.6 mph N/A   Mostly Cloudy
1:15 PM 76.3 °F 68.9 °F 78% 29.80 in 10.0 mi SE 15.0 mph 19.6 mph N/A   Mostly Cloudy
1:35 PM 73.8 °F 69.8 °F 87% 29.80 in 3.0 mi SE 12.7 mph 23.0 mph N/A Rain Light Rain
1:55 PM 72.5 °F 70.2 °F 92% 29.78 in 10.0 mi SE 6.9 mph - N/A   Overcast
2:15 PM 73.9 °F 70.2 °F 88% 29.78 in 10.0 mi SSE 8.1 mph - N/A   Overcast
2:35 PM 74.3 °F 70.0 °F 86% 29.78 in 10.0 mi SE 5.8 mph - N/A Rain Light Rain
2:55 PM 74.3 °F 70.2 °F 87% 29.76 in 10.0 mi SE 10.4 mph 19.6 mph N/A Rain Light Rain
3:15 PM 73.4 °F 70.7 °F 91% 29.77 in 7.0 mi SE 5.8 mph - 0.02 in Rain Rain
3:35 PM 72.9 °F 71.1 °F 94% 29.76 in 10.0 mi SE 6.9 mph - 0.03 in Rain Light Rain
3:55 PM 72.7 °F 71.1 °F 95% 29.76 in 5.0 mi SE 6.9 mph - 0.06 in Rain Rain
4:15 PM 72.5 °F 71.2 °F 96% 29.74 in 10.0 mi ESE 6.9 mph - N/A Rain Light Rain
4:35 PM 73.0 °F 71.6 °F 95% 29.73 in 5.0 mi SE 10.4 mph 17.3 mph 0.01 in Rain Light Rain
4:55 PM 73.6 °F 71.6 °F 93% 29.73 in 10.0 mi SSE 11.5 mph 20.7 mph 0.01 in   Overcast
5:15 PM 74.3 °F 71.8 °F 92% 29.74 in 7.0 mi SSE 8.1 mph 19.6 mph N/A Rain Rain
5:35 PM 73.9 °F 72.1 °F 94% 29.73 in 5.0 mi SE 12.7 mph 18.4 mph 0.02 in Rain Light Rain
5:55 PM 73.9 °F 72.5 °F 95% 29.75 in 10.0 mi South 11.5 mph 18.4 mph 0.03 in Rain Light Rain
6:15 PM 74.1 °F 72.5 °F 95% 29.76 in 7.0 mi South 9.2 mph - 0.01 in Rain Rain
6:35 PM 73.8 °F 72.7 °F 96% 29.76 in 3.0 mi South 11.5 mph 16.1 mph 0.14 in Rain Heavy Rain
6:55 PM 73.9 °F 72.9 °F 96% 29.77 in 5.0 mi SSW 10.4 mph 17.3 mph 0.24 in Rain Heavy Rain
7:15 PM 73.8 °F 72.5 °F 96% 29.77 in 4.0 mi SSW 10.4 mph 20.7 mph 0.09 in Rain Rain
7:35 PM 73.4 °F 72.5 °F 97% 29.78 in 4.0 mi SW 8.1 mph - 0.17 in Rain Heavy Rain
7:55 PM 72.7 °F 71.6 °F 96% 29.78 in 10.0 mi SW 11.5 mph 16.1 mph 0.23 in Rain Light Rain
8:15 PM 72.7 °F 71.1 °F 95% 29.79 in 10.0 mi SW 9.2 mph - N/A   Overcast
8:35 PM 72.1 °F 70.3 °F 94% 29.81 in 10.0 mi WSW 10.4 mph 17.3 mph N/A   Overcast
8:55 PM 71.6 °F 69.6 °F 93% 29.81 in 10.0 mi SW 5.8 mph - N/A   Overcast
9:15 PM 70.9 °F 68.7 °F 93% 29.82 in 10.0 mi SW 8.1 mph - N/A   Mostly Cloudy
9:35 PM 70.0 °F 68.0 °F 93% 29.82 in 10.0 mi SW 5.8 mph - N/A   Scattered Clouds
9:55 PM 69.8 °F 68.0 °F 94% 29.83 in 10.0 mi SW 3.5 mph - N/A   Scattered Clouds
10:15 PM 69.3 °F 68.2 °F 96% 29.84 in 10.0 mi Calm Calm - N/A   Overcast
10:35 PM 69.1 °F 67.5 °F 95% 29.85 in 10.0 mi WSW 9.2 mph - N/A   Overcast
10:55 PM 66.6 °F 63.0 °F 88% 29.86 in 10.0 mi West 8.1 mph - N/A   Mostly Cloudy
11:15 PM 64.8 °F 61.9 °F 90% 29.86 in 10.0 mi West 4.6 mph - N/A   Scattered Clouds
11:35 PM 63.5 °F 59.9 °F 88% 29.87 in 10.0 mi West 3.5 mph - N/A   Clear
11:55 PM 62.6 °F 59.0 °F 88% 29.87 in 10.0 mi West 5.8 mph - N/A   Clear